Overview Statistics Trail Chart Weather Telemetry Raw packets
 

This is the latest recevied weather packets stored in our database for station/object K7FLA. If no packets are shown the sender has not sent any weather packets the latest 10 day(s).

<< 68 69 70 71 72 73 74 >>
Time Temp. Humidity Pressure Rain* Wind** Luminosity Snow
1788186003 22.78° C 68% 1095.1 hPa 0 mm - 72 W/m² -
1788185702 21.67° C 71% 1095.1 hPa 0 mm - 63 W/m² -
1788185397 20.56° C 74% 1095.1 hPa 0 mm - 55 W/m² -
1788185096 20° C 77% 1095 hPa 0 mm - 41 W/m² -
1788184800 18.89° C 78% 1095.1 hPa 0 mm - 36 W/m² -
1788184494 17.78° C 79% 1094.9 hPa 0 mm - 31 W/m² -
1788184189 17.22° C 79% 1094.9 hPa 0 mm - 25 W/m² -
1788183886 17.22° C 79% 1095.1 hPa 0 mm - 14 W/m² -
1788183585 17.22° C 79% 1095 hPa 0 mm - 12 W/m² -
1788183281 17.22° C 80% 1095 hPa 0 mm - 10 W/m² -
1788182976 17.22° C 79% 1094.7 hPa 0 mm - 7 W/m² -
1788182671 17.22° C 79% 1094.8 hPa 0 mm - 4 W/m² -
1788182370 17.22° C 79% 1094.6 hPa 0 mm - 3 W/m² -
1788182066 17.22° C 79% 1094.8 hPa 0 mm - 1 W/m² -
1788181762 17.22° C 78% 1094.8 hPa 0 mm - 0 W/m² -
1788181457 17.22° C 78% 1094.6 hPa 0 mm - 0 W/m² -
1788181156 17.22° C 77% 1094.6 hPa 0 mm - 0 W/m² -
1788180851 17.22° C 77% 1094.8 hPa 0 mm - 0 W/m² -
1788180547 17.22° C 76% 1094.6 hPa 0 mm - 0 W/m² -
1788180243 17.22° C 76% 1094.6 hPa 0 mm - 0 W/m² -
1788179943 17.22° C 76% 1094.3 hPa 0 mm - 0 W/m² -
1788179642 17.22° C 76% 1094.7 hPa 0 mm - 0 W/m² -
1788179342 17.78° C 74% 1094.6 hPa 0 mm - 0 W/m² -
1788179037 17.78° C 74% 1094.6 hPa 0 mm - 0 W/m² -
1788178732 17.78° C 77% 1094.7 hPa 0 mm - 0 W/m² -

* Rain latest hour (hover to see other rain measurements)
** Current wind speed in m/s (hover to see current wind gust speed)